{"data":{"norad_id":62563,"intl_designator":"2025-006K","name":"STARLINK-11536 [DTC]","alt_names":[],"object_type":"PAYLOAD","status":"ACTIVE","operator":null,"country":"US","launch_date":"2025-01-10","launch_site_code":"AFETR","launch_vehicle":null,"mission":null,"orbit_class":"UNKNOWN","rcs_meters":null,"size_class":null,"mass_kg":null,"dimensions":null,"purposes":["comms"],"wikipedia_slug":null,"has_3d_model":false,"image_url":null,"decayed_at":null,"tle_current":{"epoch":"2026-05-24T23:42:14.351040Z","epoch_age_seconds":80066,"freshness":"FRESH","line1":"1 62563U 25006K   26144.98766610  .00176029  00000+0  13452-2 0  9996","line2":"2 62563  43.0049  39.8530 0002962 259.7538 100.2996 15.70860927 78603","mean_motion":15.70860927,"eccentricity":0.0002962,"inclination_deg":43.0049,"raan_deg":39.853,"arg_perigee_deg":259.7538,"mean_anomaly_deg":100.2996,"bstar":0.0013452,"rev_number":7860,"period_min":91.66947724329,"perigee_km":354.4404686499,"apogee_km":358.43002925017,"semimajor_km":6734.57224895,"source":"CELESTRAK","updated_at":"2026-05-25T13:38:19.708422Z"}}}